Flag for Germany Weather past 2 weeks in Cologne, North Rhine-Westphalia, Germany

Now
46 °F

Light rain. Passing clouds.


Feels Like: 41 °F
Forecast: 33 / 60 °F
Wind: 13 mph from Northwest

Location: Koeln / Bonn


UV Index: 3 (Moderate)

Visibility: 6 mi


Pressure: 29.89 "Hg

Humidity: 93%

Dew point: 45 °F

Location of CologneLocation

Historic Weather in Cologne

°F

Cologne temperature yesterday

Maximum temperature yesterday: 66 °F (at 5:20 PM)
Minimum temperature yesterday: 39 °F (at 2:50 AM)
Average temperature yesterday: 53 °F

Past Weeks' High & Low Weather Summary

 TemperatureHumidityPressure
High72 °F (Apr 3, 4:50 PM)100% (Apr 6, 4:20 AM)30.45 "Hg (Apr 6, 4:20 AM)
Low28 °F (Apr 16, 6:20 AM)26% (Apr 17, 4:20 PM)29.62 "Hg (Apr 3, 3:50 AM)
Average53 °F68%30.05 "Hg
* Reported Apr 3 2:20 AM — Apr 18 2:20 AM, Cologne, Weather by CustomWeather, © 2014

Note: Actual official high and low records may vary slightly from our data, if they occured in-between our weather recording intervals... More about our weather records

Advertising

Historic Weather Conditions — Data for Previous 24 hours

 ConditionsComfort  
Time TempWeatherWind HumidityBarometerVisibility
2:20 AM
Apr 18
48 °FLight rain. Partly cloudy.17 mph87%29.89 "Hg6 mi
1:20 AM54 °FClear.17 mph63%29.89 "Hg10 mi
12:50 AM55 °FClear.14 mph51%29.89 "Hg10 mi
12:20 AM55 °FClear.8 mph44%29.89 "Hg10 mi
11:50 PM
Apr 17
57 °FClear.8 mph39%29.89 "Hg10 mi
11:20 PM57 °FPassing clouds.9 mph36%29.92 "HgN/A
10:50 PM57 °FPassing clouds.14 mph36%29.92 "HgN/A
10:20 PM59 °FClear.14 mph34%29.92 "Hg10 mi
9:50 PM59 °FClear.12 mph34%29.92 "Hg10 mi
9:20 PM59 °FSunny.10 mph34%29.92 "Hg10 mi
8:50 PM59 °FSunny.7 mph36%29.92 "Hg10 mi
8:20 PM59 °FSunny.2 mph36%29.95 "Hg10 mi
7:50 PM61 °FSunny.7 mph31%29.95 "Hg10 mi
6:50 PM63 °FSunny.7 mph30%29.95 "Hg10 mi
6:20 PM64 °FSunny.8 mph28%29.98 "Hg10 mi
5:50 PM64 °FSunny.10 mph26%29.98 "Hg10 mi
5:20 PM66 °FSunny.8 mph26%29.98 "Hg10 mi
4:50 PM64 °FSunny.9 mph28%30.01 "Hg10 mi
4:20 PM64 °FPassing clouds.7 mph26%30.04 "HgN/A
3:50 PM64 °FSunny.7 mph28%30.04 "Hg10 mi
3:20 PM63 °FPassing clouds.6 mph27%30.07 "HgN/A
2:50 PM63 °FPassing clouds.7 mph34%30.09 "HgN/A
2:20 PM61 °FSunny.8 mph29%30.09 "Hg10 mi
1:50 PM59 °FSunny.9 mph34%30.12 "Hg10 mi
1:20 PM59 °FSunny.14 mph29%30.15 "Hg10 mi
12:50 PM57 °FSunny.13 mph31%30.15 "Hg10 mi
12:20 PM57 °FSunny.13 mph33%30.18 "Hg10 mi
11:50 AM55 °FSunny.10 mph36%30.21 "Hg10 mi
11:20 AM55 °FSunny.12 mph38%30.21 "Hg10 mi
10:50 AM54 °FSunny.7 mph41%30.24 "Hg10 mi
10:20 AM52 °FSunny.7 mph44%30.24 "Hg10 mi
9:20 AM48 °FSunny.8 mph50%30.24 "Hg10 mi
8:50 AM46 °FSunny.8 mph53%30.24 "Hg10 mi
8:20 AM45 °FSunny.5 mph57%30.27 "Hg10 mi
7:50 AM43 °FSunny.5 mph61%30.27 "Hg10 mi
7:20 AM39 °FClear.6 mph70%30.27 "Hg10 mi
6:50 AM39 °FClear.5 mph70%30.27 "Hg10 mi
6:20 AM41 °FClear.5 mph66%30.27 "Hg10 mi
5:50 AM41 °FClear.5 mph66%30.27 "Hg10 mi
5:20 AM41 °FClear.5 mph66%30.30 "Hg10 mi
4:50 AM41 °FClear.5 mph66%30.30 "Hg10 mi
4:20 AM41 °FClear.6 mph66%30.30 "Hg10 mi
3:50 AM41 °FClear.5 mph66%30.30 "Hg10 mi
3:20 AM41 °FClear.6 mph66%30.30 "Hg10 mi
Weather by CustomWeather, © 2014

See weather overview